DW9072 Weather Reports


time (UTC)temp
C
wind
direction
speed
KPH
gust
KPH
rain 1hr
cm
rain 24hr
cm
rain mn
cm
humidity
%
barometer
mb
20260505194804 22 283 0.0 0.0 0.00 0.00 0.00 38 1009.2
20260505194243 22 351 0.0 0.0 0.00 0.00 0.00 37 1009.3
20260505193744 22 323 0.0 0.0 0.00 0.00 0.00 39 1009.3
20260505193229 22 310 0.0 0.0 0.00 0.00 0.00 41 1009.3
20260505192727 22 291 0.0 0.0 0.00 0.00 0.00 39 1009.4
20260505192248 22 321 0.0 0.0 0.00 0.00 0.00 40 1009.4
20260505191737 21 321 0.0 0.0 0.00 0.00 0.00 40 1009.4
20260505191240 21 316 0.0 0.0 0.00 0.00 0.00 41 1009.4
20260505190801 21 332 0.0 0.0 0.00 0.00 0.00 41 1009.4
20260505190304 21 253 0.0 0.0 0.00 0.00 0.00 40 1009.3
20260505185801 21 334 0.0 0.0 0.00 0.00 0.00 41 1009.4
20260505185241 21 306 0.0 0.0 0.00 0.00 0.00 42 1009.4
20260505184732 21 320 0.0 0.0 0.00 0.00 0.00 43 1009.4
20260505184234 20 317 0.0 0.0 0.00 0.00 0.00 43 1009.4
20260505183734 20 329 0.0 0.0 0.00 0.00 0.00 43 1009.4
20260505183234 20 343 0.0 0.0 0.00 0.00 0.00 44 1009.3
20260505182735 20 319 0.0 0.0 0.00 0.00 0.00 45 1009.4
20260505182256 20 319 0.0 0.0 0.00 0.00 0.00 45 1009.4
20260505181727 19 333 0.0 0.0 0.00 0.00 0.00 46 1009.4
20260505181231 19 310 0.0 0.0 0.00 0.00 0.00 46 1009.4
20260505180730 19 297 0.0 0.0 0.00 0.00 0.00 46 1009.3
20260505180230 19 310 0.0 0.0 0.00 0.00 0.00 47 1009.4
20260505175734 18 321 0.0 0.0 0.00 0.00 0.00 47 1009.4
20260505175235 18 316 0.0 0.0 0.00 0.00 0.00 49 1009.4
20260505174744 18 298 0.0 11.3 0.00 0.00 0.00 48 1009.2
20260505174244 18 299 0.0 11.3 0.00 0.00 0.00 48 1009.4
20260505173742 18 318 0.0 3.2 0.00 0.00 0.00 49 1009.4
20260505173303 18 291 0.0 0.0 0.00 0.00 0.00 53 1009.3
20260505172744 18 305 0.0 0.0 0.00 0.00 0.00 53 1009.4
20260505172245 17 297 0.0 0.0 0.00 0.00 0.00 54 1009.2
20260505171758 17 277 0.0 0.0 0.00 0.00 0.00 51 1009.2
20260505171237 17 271 0.0 0.0 0.00 0.00 0.00 50 1009.2
20260505170738 17 318 0.0 0.0 0.00 0.00 0.00 55 1009.2
20260505170239 17 312 0.0 0.0 0.00 0.00 0.00 55 1009.2
20260505165741 17 300 0.0 0.0 0.00 0.00 0.00 56 1009.2
20260505165243 17 274 0.0 0.0 0.00 0.00 0.00 57 1009.3
20260505164752 17 255 0.0 0.0 0.00 0.00 0.00 57 1009.3
20260505164231 16 250 0.0 0.0 0.00 0.00 0.00 57 1009.2
20260505163729 16 270 0.0 0.0 0.00 0.00 0.00 56 1009.4
20260505163231 16 295 0.0 0.0 0.00 0.00 0.00 57 1009.2
20260505162751 16 298 0.0 0.0 0.00 0.00 0.00 54 1009.3
20260505162251 16 312 0.0 0.0 0.00 0.00 0.00 54 1009.4
20260505161802 16 289 0.0 0.0 0.00 0.00 0.00 54 1009.3
20260505161303 16 307 0.0 0.0 0.00 0.00 0.00 54 1009.2
20260505160727 16 310 0.0 0.0 0.00 0.00 0.00 55 1009.2
20260505160227 16 312 0.0 0.0 0.00 0.00 0.00 55 1009.2
20260505153240 15 262 0.0 0.0 0.00 0.00 0.00 56 1008.8
20260505152739 15 263 0.0 0.0 0.00 0.00 0.00 57 1009.0
20260505152240 15 250 0.0 0.0 0.00 0.00 0.00 57 1008.9
20260505151727 15 283 0.0 0.0 0.00 0.00 0.00 57 1008.8
20260505151247 15 189 0.0 0.0 0.00 0.00 0.00 58 1008.7
20260505150727 15 305 0.0 0.0 0.00 0.00 0.00 58 1008.7
20260505150246 14 218 0.0 0.0 0.00 0.00 0.00 59 1008.5
20260505140232 12 293 0.0 0.0 0.00 0.00 0.00 68 1007.7
20260505130236 12 292 0.0 0.0 0.00 0.00 0.00 67 1007.3
20260505124735 12 281 0.0 0.0 0.00 0.00 0.00 67 1007.1
20260505124237 12 290 0.0 0.0 0.00 0.00 0.00 66 1007.1
20260505123738 12 294 0.0 0.0 0.00 0.00 0.00 65 1007.0
20260505123240 12 281 0.0 0.0 0.00 0.00 0.00 64 1007.0
20260505122738 12 311 0.0 0.0 0.00 0.00 0.00 64 1007.0
20260505122242 12 299 0.0 0.0 0.00 0.00 0.00 65 1006.9
20260505121752 12 298 0.0 0.0 0.00 0.00 0.00 70 1007.1
20260505121232 13 307 0.0 0.0 0.00 0.00 0.00 70 1006.9
20260505120735 13 280 0.0 0.0 0.00 0.00 0.00 69 1006.8
20260505120236 13 299 0.0 0.0 0.00 0.00 0.00 67 1006.8
20260505115737 13 294 0.0 0.0 0.00 0.00 0.00 65 1006.9
20260505115239 13 278 0.0 0.0 0.00 0.00 0.00 64 1006.9
20260505114730 13 275 0.0 0.0 0.00 0.00 0.00 65 1006.9
20260505114231 13 294 0.0 0.0 0.00 0.00 0.00 64 1007.0
20260505113731 13 292 0.0 0.0 0.00 0.00 0.00 63 1007.0
20260505113235 13 267 0.0 0.0 0.00 0.00 0.00 64 1006.9
20260505112737 14 244 0.0 0.0 0.00 0.00 0.00 64 1007.0
20260505112239 14 289 0.0 0.0 0.00 0.00 0.00 63 1007.0
20260505111749 14 289 0.0 0.0 0.00 0.00 0.00 62 1006.9
20260505111227 14 275 0.0 0.0 0.00 0.00 0.00 62 1007.0
20260505110726 14 298 0.0 0.0 0.00 0.00 0.00 62 1007.0
20260505110226 14 321 0.0 0.0 0.00 0.00 0.00 61 1006.9
20260505101735 15 272 0.0 0.0 0.00 0.00 0.00 61 1006.5
20260505101256 15 282 0.0 0.0 0.00 0.00 0.00 61 1006.4
20260505100738 15 301 0.0 0.0 0.00 0.00 0.00 61 1006.3
20260505100301 15 305 0.0 0.0 0.00 0.00 0.00 61 1006.3
20260505095739 15 284 0.0 0.0 0.00 0.00 0.00 61 1006.2
20260505095243 15 297 0.0 0.0 0.00 0.00 0.00 61 1006.2
20260505094732 15 297 0.0 0.0 0.00 0.00 0.00 61 1006.2
20260505094234 15 281 0.0 0.0 0.00 0.00 0.00 61 1006.0
20260505093735 15 290 0.0 0.0 0.00 0.00 0.00 61 1006.2
20260505093235 15 293 0.0 0.0 0.00 0.00 0.00 60 1006.0
20260505092753 15 260 0.0 0.0 0.00 0.00 0.00 58 1006.1
20260505092253 15 273 0.0 0.0 0.00 0.00 0.00 59 1006.0
20260505091744 15 260 0.0 0.0 0.00 0.00 0.00 57 1006.1
20260505091244 15 268 0.0 0.0 0.00 0.00 0.00 57 1006.1
20260505090744 15 294 0.0 0.0 0.00 0.00 0.00 56 1006.1
20260505090244 15 269 0.0 0.0 0.00 0.00 0.00 58 1006.1
20260505085744 16 292 0.0 0.0 0.00 0.00 0.00 58 1006.1
20260505085245 16 285 0.0 0.0 0.00 0.00 0.00 58 1006.0
20260505084735 16 314 0.0 0.0 0.00 0.00 0.00 57 1006.1
20260505084239 16 308 0.0 0.0 0.00 0.00 0.00 57 1006.1
20260505083737 16 317 0.0 0.0 0.00 0.00 0.00 57 1006.1
20260505083238 16 300 0.0 0.0 0.00 0.00 0.00 57 1006.1
20260505082739 16 287 0.0 0.0 0.00 0.00 0.00 57 1006.1
20260505082242 16 293 0.0 0.0 0.00 0.00 0.00 57 1006.0
20260505081732 16 300 0.0 0.0 0.00 0.00 0.00 58 1006.0
20260505081233 16 295 0.0 0.0 0.00 0.00 0.00 58 1006.0
20260505080755 16 278 0.0 0.0 0.00 0.00 0.00 57 1006.0
20260505080255 16 279 0.0 0.0 0.00 0.00 0.00 56 1006.1
20260505075735 16 276 0.0 0.0 0.00 0.00 0.00 54 1006.1
20260505075237 16 302 0.0 0.0 0.00 0.00 0.00 53 1006.1
20260505074728 16 324 0.0 0.0 0.00 0.00 0.00 53 1006.1
20260505074228 16 311 0.0 0.0 0.00 0.00 0.00 53 1005.9
20260505073730 17 313 0.0 0.0 0.00 0.00 0.00 52 1005.9
20260505073232 17 313 0.0 0.0 0.00 0.00 0.00 51 1005.9
20260505072755 17 294 0.0 1.6 0.00 0.00 0.00 51 1005.8
20260505072236 17 308 0.0 1.6 0.00 0.00 0.00 51 1005.8
20260505071732 17 307 0.0 0.0 0.00 0.00 0.00 51 1005.8
20260505071233 17 317 0.0 0.0 0.00 0.00 0.00 51 1005.7
20260505070737 17 316 0.0 0.0 0.00 0.00 0.00 53 1005.7
20260505070259 17 301 0.0 0.0 0.00 0.00 0.00 54 1005.7
20260505065738 17 304 0.0 0.0 0.00 0.00 0.00 54 1005.7
20260505065239 17 297 0.0 0.0 0.00 0.00 0.00 49 1005.7
20260505064729 17 303 0.0 0.0 0.00 0.00 0.00 49 1005.6
20260505064230 17 313 0.0 0.0 0.00 0.00 0.00 49 1005.6
20260505063732 17 311 0.0 0.0 0.00 0.00 0.00 49 1005.6
20260505063231 17 324 0.0 0.0 0.00 0.00 0.00 49 1005.7
20260505062752 17 308 0.0 0.0 0.00 0.00 0.00 49 1005.7
20260505062253 18 322 0.0 0.0 0.00 0.00 0.00 48 1005.7
20260505061743 18 317 0.0 0.0 0.00 0.00 0.00 49 1005.7
20260505061243 18 302 0.0 0.0 0.00 0.00 0.00 49 1005.6
20260505060744 18 318 0.0 0.0 0.00 0.00 0.00 49 1005.6
20260505060246 18 312 0.0 0.0 0.00 0.00 0.00 49 1005.5
20260505055744 18 323 0.0 0.0 0.00 0.00 0.00 48 1005.6
20260505055247 18 313 0.0 0.0 0.00 0.00 0.00 48 1005.4
20260505054759 18 316 0.0 0.0 0.00 0.00 0.00 48 1005.6
20260505054244 18 297 0.0 0.0 0.00 0.00 0.00 47 1005.6
20260505053725 18 318 0.0 0.0 0.00 0.00 0.00 45 1005.5
20260505053226 18 317 0.0 0.0 0.00 0.00 0.00 46 1005.6
20260505052727 18 321 0.0 0.0 0.00 0.00 0.00 45 1005.5
20260505052247 18 302 0.0 0.0 0.00 0.00 0.00 44 1005.5
20260505051740 18 284 0.0 0.0 0.00 0.00 0.00 46 1005.6
20260505051302 19 289 0.0 0.0 0.00 0.00 0.00 46 1005.5
20260505050742 19 296 0.0 0.0 0.00 0.00 0.00 47 1005.4
20260505050242 19 283 0.0 0.0 0.00 0.00 0.00 47 1005.4
20260505041736 20 298 0.0 12.9 0.00 0.00 0.00 46 1005.2
20260505041258 20 280 0.0 12.9 0.00 0.00 0.00 46 1005.1
20260505040757 20 294 0.0 0.0 0.00 0.00 0.00 46 1005.1
20260505040258 20 294 0.0 0.0 0.00 0.00 0.00 46 1005.0
20260505035757 20 311 0.0 0.0 0.00 0.00 0.00 46 1005.0
20260505035239 20 297 0.0 0.0 0.00 0.00 0.00 46 1004.9
20260505034729 20 303 0.0 0.0 0.00 0.00 0.00 47 1004.9
20260505034229 20 287 0.0 4.8 0.00 0.00 0.00 47 1004.9
20260505033751 20 265 0.0 4.8 0.00 0.00 0.00 47 1004.8
20260505033231 20 303 0.0 0.0 0.00 0.00 0.00 48 1004.8
20260505032732 20 312 0.0 0.0 0.00 0.00 0.00 49 1004.7
20260505032313 20 313 0.0 0.0 0.00 0.00 0.00 49 1004.7
20260505031744 20 277 0.0 0.0 0.00 0.00 0.00 48 1004.7
20260505031244 20 311 0.0 0.0 0.00 0.00 0.00 49 1004.7
20260505030743 20 301 0.0 4.8 0.00 0.00 0.00 48 1004.7
20260505030244 20 308 0.0 4.8 0.00 0.00 0.00 47 1004.6
20260505025746 20 315 0.0 3.2 0.00 0.00 0.00 48 1004.5
20260505025307 21 316 0.0 0.0 0.00 0.00 0.00 48 1004.5
20260505024757 21 320 0.0 0.0 0.00 0.00 0.00 47 1004.4
20260505024235 21 309 0.0 0.0 0.00 0.00 0.00 45 1004.5
20260505023736 21 317 0.0 0.0 0.00 0.00 0.00 44 1004.4
20260505023236 22 310 0.0 1.6 0.00 0.00 0.00 43 1004.4
20260505022757 22 323 0.0 1.6 0.00 0.00 0.00 42 1004.3
20260505022242 22 313 0.0 0.0 0.00 0.00 0.00 41 1004.4
20260505021731 22 310 0.0 0.0 0.00 0.00 0.00 41 1004.5
20260505021231 22 313 0.0 1.6 0.00 0.00 0.00 41 1004.5
20260505020732 22 289 0.0 0.0 0.00 0.00 0.00 41 1004.5
20260505020232 23 326 0.0 8.0 0.00 0.00 0.00 40 1004.5
20260505015731 23 303 0.0 8.0 0.00 0.00 0.00 39 1004.5
20260505015254 23 307 0.0 6.4 0.00 0.00 0.00 39 1004.5
20260505014742 23 303 0.0 6.4 0.00 0.00 0.00 38 1004.7
20260505014242 23 320 0.0 4.8 0.00 0.00 0.00 38 1004.5
20260505013804 23 326 0.0 1.6 0.00 0.00 0.00 37 1004.6
20260505013244 23 321 0.0 0.0 0.00 0.00 0.00 37 1004.6
20260505012806 23 304 0.0 1.6 0.00 0.00 0.00 38 1004.6
20260505012246 24 323 0.0 1.6 0.00 0.00 0.00 37 1004.5
20260505011737 24 328 0.0 1.6 0.00 0.00 0.00 36 1004.6
20260505011237 24 315 0.0 4.8 0.00 0.00 0.00 36 1004.6
20260505010736 24 321 0.0 4.8 0.00 0.00 0.00 36 1004.6
20260505010242 24 311 0.0 8.0 0.00 0.00 0.00 36 1004.7
20260505005803 25 316 0.0 8.0 0.00 0.00 0.00 35 1004.7
20260505005304 25 332 0.0 9.7 0.00 0.00 0.00 35 1004.7
20260505004733 25 331 1.6 9.7 0.00 0.00 0.00 34 1004.8
20260505004235 25 334 0.0 6.4 0.00 0.00 0.00 35 1004.7
20260505003734 25 331 0.0 6.4 0.00 0.00 0.00 33 1004.7
20260505003256 25 297 0.0 0.0 0.00 0.00 0.00 33 1004.7
20260505002736 25 335 0.0 0.0 0.00 0.00 0.00 33 1004.8
20260505002239 25 294 0.0 0.0 0.00 0.00 0.00 33 1004.8
20260505001729 25 323 0.0 0.0 0.00 0.00 0.00 33 1004.8
20260505001250 26 301 0.0 9.7 0.00 0.00 0.00 32 1004.9
20260505000731 26 319 1.6 9.7 0.00 0.00 0.00 30 1005.0
20260505000233 26 317 0.0 3.2 0.00 0.00 0.00 29 1004.9
20260504235733 26 311 0.0 3.2 0.00 0.00 0.00 27 1004.9
20260504235254 26 316 0.0 3.2 0.00 0.00 0.00 27 1004.9
20260504234743 26 327 0.0 1.6 0.00 0.00 0.00 27 1004.8
20260504234226 26 295 0.0 0.0 0.00 0.00 0.00 27 1004.8
20260504233730 27 304 0.0 0.0 0.00 0.00 0.00 27 1004.8
20260504233230 26 288 0.0 1.6 0.00 0.00 0.00 27 1004.9
20260504232730 26 286 0.0 1.6 0.00 0.00 0.00 27 1004.8
20260504232252 27 314 0.0 0.0 0.00 0.00 0.00 27 1004.9
20260504231743 27 305 0.0 0.0 0.00 0.00 0.00 27 1004.9
20260504231243 27 317 0.0 0.0 0.00 0.00 0.00 28 1004.8
20260504230742 27 313 0.0 0.0 0.00 0.00 0.00 26 1004.9
20260504230243 27 331 0.0 0.0 0.00 0.00 0.00 27 1005.0
20260504225741 27 356 0.0 0.0 0.00 0.00 0.00 25 1005.0
20260504225244 27 339 0.0 0.0 0.00 0.00 0.00 25 1005.1
20260504224736 27 351 0.0 8.0 0.00 0.00 0.00 26 1005.1
20260504224236 27 332 0.0 0.0 0.00 0.00 0.00 27 1005.1
20260504223756 27 275 0.0 0.0 0.00 0.00 0.00 27 1005.2
20260504223255 27 325 0.0 0.0 0.00 0.00 0.00 27 1005.2
20260504222735 27 351 0.0 0.0 0.00 0.00 0.00 27 1005.3
20260504222238 27 330 0.0 19.3 0.00 0.00 0.00 27 1005.4
20260504221729 27 346 1.6 19.3 0.00 0.00 0.00 27 1005.4
20260504221230 27 317 0.0 0.0 0.00 0.00 0.00 27 1005.4
20260504220752 27 277 0.0 0.0 0.00 0.00 0.00 27 1005.4
20260504220252 27 301 0.0 0.0 0.00 0.00 0.00 27 1005.5
20260504215730 27 321 0.0 0.0 0.00 0.00 0.00 25 1005.5
20260504215312 27 338 0.0 0.0 0.00 0.00 0.00 26 1005.5
20260504214727 28 343 0.0 0.0 0.00 0.00 0.00 26 1005.6
20260504214227 28 341 0.0 0.0 0.00 0.00 0.00 24 1005.6
20260504213747 28 15 0.0 0.0 0.00 0.00 0.00 23 1005.6
20260504213236 27 310 0.0 0.0 0.00 0.00 0.00 25 1005.7
20260504212755 27 92 0.0 0.0 0.00 0.00 0.00 24 1005.7
20260504212251 27 99 0.0 0.0 0.00 0.00 0.00 23 1005.7
20260504211800 27 86 0.0 0.0 0.00 0.00 0.00 23 1005.8
20260504211238 27 93 0.0 0.0 0.00 0.00 0.00 23 1005.8
20260504210736 27 62 0.0 0.0 0.00 0.00 0.00 22 1005.9
20260504210228 27 41 0.0 0.0 0.00 0.00 0.00 24 1006.0
20260504205806 27 22 0.0 12.9 0.00 0.00 0.00 24 1005.9
20260504205257 27 26 1.6 12.9 0.00 0.00 0.00 25 1006.0
20260504204756 27 13 0.0 0.0 0.00 0.00 0.00 25 1006.0
20260504204243 27 22 0.0 0.0 0.00 0.00 0.00 26 1006.2
20260504203753 27 77 0.0 0.0 0.00 0.00 0.00 26 1006.1
20260504203249 27 30 0.0 0.0 0.00 0.00 0.00 26 1006.2
20260504202737 27 36 0.0 0.0 0.00 0.00 0.00 27 1006.2
20260504202249 27 0 0.0 0.0 0.00 0.00 0.00 25 1006.2
20260504201736 27 56 0.0 0.0 0.00 0.00 0.00 25 1006.2
20260504201232 27 353 0.0 0.0 0.00 0.00 0.00 27 1006.3
20260504200752 27 272 0.0 0.0 0.00 0.00 0.00 27 1006.2
20260504200232 26 338 0.0 0.0 0.00 0.00 0.00 27 1006.3
20260504195753 26 7 0.0 0.0 0.00 0.00 0.00 27 1006.4
20260504195243 26 123 0.0 0.0 0.00 0.00 0.00 28 1006.3